Location: Unspecified
(0.0000°N, 0.0000°E)
Time: 16:20:51
(UTC+00:00)

ISS - Pass Details

Date: 21 August 2017
Orbit: 401 x 408 km, 51.6° (Epoch: 19 August)

Event Time Altitude Azimuth Distance (km) Brightness Sun altitude
Rises 18:42:50 0° 322° (NW) 2,293 0.8 -9.7°
Reaches altitude 10° 18:44:54 10° 321° (NW) 1,439 -0.2 -10.2°
Maximum altitude 18:48:07 77° 235° (SW) 412 -3.7 -11.0°
Enters shadow 18:51:17 10° 148° (SSE) 1,422 -1.5 -11.8°
